Ray Roberts Lake Weather Center

Moon Phase Calendar



Ray Roberts Lake Water Level
Online Cameras

 


      

Current Conditions in Pilot Point
1/22/2021 1:14:15 PM

51°F
Feels Like 49
Clouds
Humidity
87%
Pressure
30.03"
Wind
2 mph (E)
Dew Point
47°F
UV Index
2/10 (Low)
Visibility
6 mi

Hourly Forecast

Date & Time Fri, Jan 22
1:00 PM
Fri, Jan 22
2:00 PM
Fri, Jan 22
3:00 PM
Fri, Jan 22
4:00 PM
Fri, Jan 22
5:00 PM
Fri, Jan 22
6:00 PM
Fri, Jan 22
7:00 PM
Fri, Jan 22
8:00 PM
Fri, Jan 22
9:00 PM
Fri, Jan 22
10:00 PM
Fri, Jan 22
11:00 PM
Sat, Jan 23
12:00 AM
Sat, Jan 23
1:00 AM
Sat, Jan 23
2:00 AM
Sat, Jan 23
3:00 AM
Sat, Jan 23
4:00 AM
Sat, Jan 23
5:00 AM
Sat, Jan 23
6:00 AM
Sat, Jan 23
7:00 AM
Sat, Jan 23
8:00 AM
Sat, Jan 23
9:00 AM
Sat, Jan 23
10:00 AM
Sat, Jan 23
11:00 AM
Sat, Jan 23
12:00 PM
Sat, Jan 23
1:00 PM
Sat, Jan 23
2:00 PM
Sat, Jan 23
3:00 PM
Sat, Jan 23
4:00 PM
Sat, Jan 23
5:00 PM
Sat, Jan 23
6:00 PM
Sat, Jan 23
7:00 PM
Sat, Jan 23
8:00 PM
Sat, Jan 23
9:00 PM
Sat, Jan 23
10:00 PM
Sat, Jan 23
11:00 PM
Sun, Jan 24
12:00 AM
Sun, Jan 24
1:00 AM
Sun, Jan 24
2:00 AM
Sun, Jan 24
3:00 AM
Sun, Jan 24
4:00 AM
Sun, Jan 24
5:00 AM
Sun, Jan 24
6:00 AM
Sun, Jan 24
7:00 AM
Sun, Jan 24
8:00 AM
Sun, Jan 24
9:00 AM
Sun, Jan 24
10:00 AM
Sun, Jan 24
11:00 AM
Sun, Jan 24
12:00 PM
Condition
Clouds

Clouds

Clouds

Clouds

Clouds

Clouds

Clouds

Clouds

Clouds

Clouds

Clouds

Clouds

Clouds

Clouds

Clouds

Clouds

Clouds

Clouds

Clouds

Clouds

Clouds

Clouds

Clouds

Clouds

Clouds

Clouds

Clouds

Clouds

Clouds

Clouds

Clouds

Rain

Rain

Rain

Clouds

Clouds

Clouds

Clouds

Clouds

Clouds

Clouds

Clouds

Clouds

Clouds

Clouds

Clouds

Rain

Rain
Temperature 51°F54°F55°F55°F55°F53°F52°F52°F51°F51°F51°F50°F50°F49°F47°F47°F45°F44°F45°F46°F47°F48°F49°F49°F50°F51°F52°F52°F53°F53°F53°F53°F53°F53°F53°F54°F54°F55°F56°F56°F57°F57°F58°F58°F60°F61°F61°F64°F
Feels Like 45°F48°F49°F49°F49°F47°F46°F46°F45°F45°F44°F44°F43°F42°F40°F38°F37°F37°F37°F38°F39°F40°F41°F41°F42°F43°F44°F45°F46°F49°F49°F48°F47°F47°F47°F48°F49°F50°F52°F53°F55°F56°F56°F57°F58°F59°F59°F60°F
Cloudiness 83%85%88%91%92%94%99%99%98%98%98%98%100%93%86%83%75%73%100%99%99%99%99%99%100%100%100%100%98%98%100%100%100%100%100%100%100%100%100%100%100%100%100%100%100%100%100%99%
Visibility 6 mi6 mi6 mi6 mi6 mi6 mi6 mi6 mi6 mi6 mi6 mi6 mi6 mi6 mi6 mi6 mi6 mi6 mi6 mi6 mi6 mi6 mi6 mi6 mi6 mi6 mi6 mi6 mi6 mi6 mi6 mi6 mi6 mi6 mi6 mi6 mi6 mi6 mi6 mi6 mi6 mi6 mi6 mi4 mi6 mi6 mi6 mi6 mi
Precipitation 0%0%0%0%0%0%0%0%0%0%0%0%0%0%0%0%0%0%0%0%0%0%0%0%0%0%0%0%0%0%25%45%54%60%55%45%0%0%0%0%0%0%0%0%0%0%40%73%
Humidity 87%75%69%68%69%72%73%72%72%73%74%74%74%76%78%79%83%83%81%81%80%80%79%79%79%80%80%81%81%85%87%89%90%92%92%93%95%96%96%97%97%97%98%98%97%95%96%90%
Dew Point 47°F46°F45°F45°F45°F44°F44°F43°F43°F43°F43°F42°F42°F42°F41°F41°F40°F40°F40°F40°F41°F42°F43°F43°F44°F45°F46°F46°F48°F49°F49°F50°F51°F51°F51°F52°F53°F54°F55°F56°F56°F57°F57°F58°F59°F60°F60°F61°F
Pressure 30.03"30.03"30"30"30"30.03"30.06"30.06"30.09"30.09"30.09"30.09"30.06"30.06"30.06"30.06"30.06"30.06"30.09"30.09"30.12"30.12"30.09"30.06"30.03"30"29.97"29.97"29.97"29.94"29.97"29.94"29.94"29.94"29.91"29.91"29.88"29.88"29.85"29.85"29.85"29.85"29.85"29.83"29.83"29.83"29.83"29.77"
Wind Speed 9.4 mph8.7 mph8.9 mph8.9 mph8.2 mph7.7 mph7.7 mph7.3 mph8 mph8 mph8.3 mph8.4 mph9 mph9.6 mph9.8 mph10.7 mph9.5 mph9 mph9.8 mph9.7 mph10.4 mph10.9 mph11.2 mph11.5 mph11.8 mph11.6 mph12.1 mph11.4 mph10.9 mph7 mph6.6 mph9.3 mph10.6 mph10.6 mph11.2 mph11.4 mph10.8 mph10.3 mph8.9 mph8.8 mph7.5 mph6.5 mph6.5 mph6.8 mph6.8 mph9.1 mph9.4 mph13.7 mph
Wind
Direction
76°
ENE
79°
E
78°
ENE
81°
E
77°
ENE
75°
ENE
69°
ENE
68°
ENE
82°
E
90°
E
95°
E
95°
E
94°
E
94°
E
92°
E
94°
E
93°
E
90°
E
94°
E
98°
E
105°
ESE
113°
ESE
120°
ESE
121°
ESE
124°
SE
121°
ESE
123°
ESE
126°
SE
140°
SE
147°
SSE
110°
ESE
111°
ESE
121°
ESE
130°
SE
139°
SE
141°
SE
137°
SE
144°
SE
150°
SSE
156°
SSE
162°
SSE
163°
SSE
154°
SSE
143°
SE
138°
SE
146°
SE
154°
SSE
164°
SSE

Daily Forecast

Date High Low Precip. Humidity
Today
Jan 22

Clouds
54 °F
44 °F
4%
68%
Saturday
Jan 23

Rain
52 °F
45 °F
29%
77%
Sunday
Jan 24

Rain
64 °F
52 °F
100%
96%
Monday
Jan 25

Rain
64 °F
50 °F
100%
45%
Tuesday
Jan 26

Clear
63 °F
41 °F
0%
62%
Wednesday
Jan 27

Clear
61 °F
47 °F
0%
35%
Thursday
Jan 28

Clouds
57 °F
38 °F
0%
50%
Friday
Jan 29

Clouds
60 °F
43 °F
0%
59%
Saturday
Jan 30

Rain
64 °F
52 °F
100%
85%
Sunday
Jan 31

Clear
63 °F
48 °F
81%
49%
Monday
Feb 1

Rain
71 °F
53 °F
32%
80%
Tuesday
Feb 2

Clouds
76 °F
63 °F
0%
64%
Wednesday
Feb 3

Rain
61 °F
53 °F
20%
43%
Thursday
Feb 4

Clear
59 °F
35 °F
3%
36%
Friday
Feb 5

Clear
44 °F
28 °F
0%
62%
Saturday
Feb 6

Clear
58 °F
33 °F
0%
41%


Temperature 8-14 Day Outlook



Precipitation 8-14 Day Outlook




Quick Links
Ray Roberts Lake News
Ray Roberts Lake Photos
Ray Roberts Lake Videos




About Us
Contact Us
Site Map
Search Site
Advertise With Us
   
RayRoberts.USLakes.info
THE RAY ROBERTS LAKE WEBSITE

Copyright 2021, Lakes Online
Privacy    |    Legal